Location: Medlow Airstrip Trail, Medlow Bath NSW 2780, Australia
(33.6682°S, 150.3233°E)
Time: 01:57:11
(UTC+11:00)

Explorer 11/Cluster Stage 4 - Pass Details

Date: 01 October 2019
Orbit: 467 x 1259 km, 28.8° (Epoch: 21 October)

Event Time Altitude Azimuth Distance (km) Brightness Sun altitude
Rises 11:35:26 0° 284° (WNW) 3,015 9.6 59.2°
Reaches altitude 10° 11:39:15 10° 315° (NW) 2,284 9.4 59.3°
Maximum altitude 11:41:18 12° 337° (NNW) 2,238 9.6 59.3°
Drops below altitude 10° 11:43:30 10° 359° (N) 2,490 9.8 59.3°
Sets 11:48:10 0° 27° (NNE) 3,650 10.4 59.4°
